Regional Weather Roundup
Issued by NWS

Home | Current Version | Previous Version | Text Only | Print | Product List | Glossary On
Versions: 1 2 3 4 5 6 7 8 9 10 11 12 13 14 15 16 17 18 19 20 21 22 23 24 25 26 27 28 29 30 31 32 33 34 35 36 37 38 39 40 41 42 43 44 45 46 47 48 49 50
341
ASUS43 KLMK 280010
RWRKY
KENTUCKY REGIONAL WEATHER ROUNDUP
NATIONAL WEATHER SERVICE LOUISVILLE KY
800 PM EDT SAT MAY 27 2017

NOTE "FAIR" INDICATES FEW OR NO CLOUDS BELOW 12,000 FEET
WITH NO SIGNIFICANT WEATHER AND/OR OBSTRUCTIONS TO VISIBILITY.

KYZ001>023-026-027-061>063-070>075-280100-
WESTERN AND SOUTH CENTRAL KENTUCKY

CITY           SKY/WX    TMP DP  RH WIND       PRES   REMARKS
PADUCAH        TSTM      66  60  81 W7G18     29.91R
HENDERSON      CLOUDY    73  62  68 MISG      29.85R
OWENSBORO      CLOUDY    74  65  73 VRB6      29.85R THUNDER
HOPKINSVILLE   DRIZZLE   64  64 100 E8        29.85F
BOWLING GREEN  LGT RAIN  73  62  68 W22G35    29.88R
GLASGOW        TSTM      73  73 100 N14G20    29.91R
$$

KYZ024-025-028>034-038-045-046-053-280100-
NORTH CENTRAL KENTUCKY

CITY           SKY/WX    TMP DP  RH WIND       PRES   REMARKS
LOUISVILLE/SDF CLOUDY    73  65  75 SW9       29.82F
LOUISVILLE/LOU CLOUDY    75  68  78 SW8       29.83F
FORT KNOX      LGT RAIN  64  64 100 SW8       29.87R
$$

KYZ035>037-039>044-047>052-055>060-089>105-280100-
NORTHEAST KENTUCKY

CITY           SKY/WX    TMP DP  RH WIND       PRES   REMARKS
LEXINGTON      CLOUDY    72  66  81 SE3       29.87F
COVINGTON      CLOUDY    77  69  76 SW7       29.83S
FRANKFORT      CLOUDY    72  64  76 S3        29.84R
$$

KYZ054-064>069-076>088-106>120-280100-
SOUTHEAST KENTUCKY

CITY           SKY/WX    TMP DP  RH WIND       PRES   REMARKS
JACKSON        CLOUDY    64  62  93 SE3       29.91F
LONDON         TSTM      70  65  84 SW9       29.92R
SOMERSET       CLOUDY    70  61  73 E5        29.90R
MIDDLESBORO    CLOUDY    68  65  90 CALM      29.92S
MONTICELLO     CLOUDY    77  70  78 VRB6      29.90S
$$





USA.gov is the U.S. government's official web portal to all federal, state and local government web resources and services.